Wind_Speed
10 7 8 11 5 11 7 11 10 24 25 22 18 19 24 26 23 23 27 28 29 29 30 30 29 30 28 30 35 40 43 45 46 47 48 49 51 53 52 49 49 52 50 48
11 7 5 10 6 10 14 13 20 26 28 29 11 13 26 37 33 30 31 37 41 39 36 36 39 39 40 39 41 44 46 46 49 49 50 50 52 53 51 49 50 54 49 47
15 15 16 8 9 12 10 8 19 24 21 25 22 17 29 35 34 32 32 37 43 44 43 42 41 43 45 40 43 46 48 48 50 48 50 51 55 53 51 49 48 52 52 53
20 18 12 12 17 12 9 9 16 21 18 20 23 23 36 28 29 35 32 37 40 43 43 44 46 42 45 43 45 47 51 55 52 49 52 50 54 54 53 50 51 54 54 56
18 19 20 21 21 19 10 13 10 14 21 18 21 25 19 12 35 39 35 38 37 40 46 48 47 45 46 46 48 50 53 54 53 50 50 53 60 52 51 55 53 51 58 55
24 17 14 19 19 20 20 20 21 17 21 23 25 31 34 34 37 38 35 33 39 44 43 42 40 45 47 47 49 51 53 53 52 50 54 59 60 55 52 53 51 55 57 59
25 22 20 21 18 17 23 26 19 20 25 22 23 27 30 34 39 42 41 41 39 38 42 36 42 47 50 47 50 55 56 57 58 54 58 60 62 58 54 53 57 57 57 56
24 22 25 25 23 25 22 29 31 26 28 30 37 36 24 35 40 42 37 47 39 35 38 44 46 54 54 56 58 58 57 56 61 60 60 62 61 59 58 58 63 58 53 55
25 26 31 29 24 24 26 27 29 35 36 33 35 31 25 32 32 17 24 52 46 42 47 46 44 57 55 62 60 60 57 60 61 63 60 61 63 59 58 59 59 53 51 55
24 28 25 28 24 24 26 25 24 28 29 32 34 34 32 31 35 30 37 41 46 47 45 43 51 57 54 60 63 61 60 62 61 61 62 64 63 63 60 61 58 56 55 57
30 28 23 26 24 29 29 25 15 29 34 33 34 36 26 32 37 37 39 40 40 43 47 60 60 56 53 53 58 57 59 63 64 63 65 65 64 62 61 63 61 64 63 62
23 23 21 22 22 26 26 23 25 28 25 29 35 40 34 36 40 43 43 42 36 33 30 42 49 49 39 62 60 63 64 66 68 68 68 65 67 65 65 67 65 65 67 66
21 21 23 25 26 25 26 28 30 33 32 31 37 38 38 35 38 37 40 42 38 31 10 44 48 53 52 71 65 68 70 68 67 66 66 69 69 70 69 69 69 70 72 69
22 22 23 25 25 24 27 28 29 31 35 37 38 36 35 37 38 35 35 38 38 26 19 36 22 44 74 72 70 72 74 72 71 70 70 69 71 72 72 71 71 73 76 66
24 24 24 25 27 28 28 31 31 33 35 36 36 36 33 33 35 36 39 37 34 25 28 40 53 67 80 75 75 74 73 72 72 72 73 75 77 77 76 75 74 73 66 53
26 26 26 27 27 28 28 27 29 31 34 35 36 39 36 29 33 33 38 44 44 43 39 46 60 70 72 73 72 72 72 72 74 75 77 77 76 74 71 65 58 52 49 44
24 24 23 25 25 26 26 26 28 29 34 35 45 40 31 34 43 41 50 55 55 54 54 58 62 66 69 70 70 69 70 72 74 75 72 63 62 62 58 53 44 46 40 33
22 21 21 22 23 27 22 24 26 33 36 36 38 37 48 37 39 48 59 63 65 65 63 65 66 67 66 64 64 64 66 67 67 61 56 61 56 54 50 44 39 35 28 31
23 22 24 24 26 28 30 26 31 36 33 46 41 45 43 34 47 60 64 64 64 65 66 66 67 63 61 61 61 61 61 54 49 49 56 56 52 43 39 39 36 32 32 33
24 28 31 28 28 30 33 36 29 26 42 44 38 38 33 51 60 69 68 64 64 65 66 70 62 59 58 56 56 52 59 52 49 46 54 48 42 40 39 38 38 37 37 39
30 31 33 36 38 41 34 34 36 43 54 48 50 54 57 62 60 63 58 67 65 65 68 67 61 58 55 57 55 58 66 53 45 51 45 41 43 42 42 43 43 43 45 47
34 32 32 32 31 18 16 28 43 60 66 57 61 64 61 58 57 49 61 66 68 70 69 64 58 56 54 52 56 58 60 52 46 44 44 45 43 46 46 45 45 45 46 48
42 38 39 30 27 38 46 44 57 63 49 61 39 29 33 39 46 61 66 59 59 62 60 53 51 53 55 51 56 50 52 48 49 47 47 48 47 44 42 42 46 49 50 51
51 42 44 39 40 39 45 48 47 47 54 28 33 41 63 61 65 77 69 60 58 56 56 52 52 52 48 52 51 46 48 52 52 50 47 46 44 44 47 48 48 49 51 52
51 49 48 44 43 50 47 31 32 40 60 54 65 74 49 66 69 69 64 62 61 61 54 51 49 51 48 51 50 44 50 49 46 45 44 44 46 46 48 50 51 53 55 55
48 48 45 48 44 41 39 33 21 46 53 41 38 48 63 69 70 65 64 65 64 59 53 51 49 51 48 49 43 46 47 46 43 42 45 45 46 47 48 52 58 60 60 63
Wind_Direction
281 319 5 45 26 5 3 358 7 29 21 9 4 33 27 15 6 356 346 341 336 331 329 333 331 331 332 339 340 334 345 351 348 345 346 348 347 345 349 347 352 351 349 350
269 247 285 20 28 353 333 10 31 22 13 3 358 350 348 353 355 353 359 359 349 345 348 344 338 330 328 329 334 334 334 340 343 343 343 342 342 342 343 349 350 351 347 349
271 293 263 263 282 340 334 31 26 10 8 352 355 332 335 333 343 342 341 348 346 341 341 338 338 335 337 341 332 332 333 334 337 340 339 340 341 341 339 343 344 346 348 346
264 283 282 280 293 319 334 23 354 360 345 338 345 337 329 321 337 336 330 340 344 340 338 337 334 331 333 334 334 332 333 335 337 337 336 338 341 340 338 337 338 339 342 345
251 273 287 286 290 290 299 304 322 325 323 332 340 331 344 331 326 327 335 328 334 340 332 328 330 332 333 332 331 329 331 331 333 334 334 336 335 339 339 338 337 334 337 340
263 251 274 292 290 287 277 297 287 284 301 300 309 315 321 314 311 307 317 325 334 332 331 330 325 334 335 330 327 328 331 331 330 329 330 331 332 334 335 333 334 329 331 333
270 277 278 276 281 294 292 294 299 308 304 297 302 310 310 302 310 318 316 330 328 327 335 335 335 331 335 331 323 325 329 328 326 328 327 328 331 333 331 330 329 328 329 331
264 275 281 284 282 283 278 293 299 298 300 294 306 311 308 314 324 323 318 330 322 318 330 319 315 328 333 336 333 327 330 323 324 324 324 326 329 329 328 325 327 328 329 328
267 279 280 277 274 283 289 288 283 282 295 301 311 327 295 303 326 339 298 312 326 326 323 319 314 319 319 329 332 328 321 321 321 321 322 323 325 324 322 321 327 328 327 324
277 289 282 276 283 296 294 296 308 293 296 299 307 318 325 320 322 314 310 312 315 319 326 325 323 319 313 319 324 324 323 322 323 322 321 323 324 324 324 325 327 328 327 326
268 276 278 280 285 294 295 292 251 290 303 303 309 315 322 322 313 313 315 317 322 336 316 326 320 310 313 322 325 327 327 326 324 322 321 322 322 322 324 325 325 325 325 324
260 265 273 279 293 298 300 302 293 293 304 312 310 312 321 318 318 316 322 320 317 323 281 318 313 315 323 337 330 326 325 325 323 322 322 323 324 323 319 318 319 317 317 317
269 273 282 285 290 295 298 300 309 310 311 304 305 311 321 314 311 320 316 318 326 327 315 308 322 328 317 328 325 325 323 323 321 320 321 322 321 320 318 317 316 316 318 316
271 277 282 288 292 295 298 300 300 302 302 302 305 308 311 317 316 318 316 315 317 319 319 266 300 298 312 321 322 322 321 321 319 319 318 316 316 315 315 312 313 313 316 318
273 278 283 289 295 297 300 302 302 304 308 311 310 313 317 316 320 318 315 313 309 300 276 287 287 292 306 314 319 320 318 316 318 319 318 318 316 315 313 311 310 311 313 320
273 278 285 288 292 296 296 301 305 307 311 317 319 316 318 322 330 329 325 324 321 312 290 279 281 291 302 309 313 313 314 316 316 317 318 319 316 316 316 315 315 314 312 315
277 280 285 290 295 299 305 308 316 320 318 319 316 315 310 313 322 322 329 329 325 320 315 311 307 304 303 305 307 312 314 315 317 319 320 325 326 326 328 325 318 321 320 316
273 279 287 292 299 299 301 309 308 311 316 315 317 318 320 323 316 323 325 323 322 322 322 319 316 313 309 309 310 312 316 319 322 323 333 335 331 331 334 339 342 341 334 328
271 279 284 287 296 297 306 302 306 300 320 316 314 302 309 303 316 323 322 325 323 324 321 317 316 313 311 313 317 320 323 323 322 325 336 337 340 345 348 351 352 347 339 333
274 284 289 291 295 297 299 302 298 312 312 316 309 313 294 298 302 311 319 318 320 320 319 318 316 313 316 318 320 324 330 320 331 332 338 342 343 345 350 348 345 342 336 334
277 281 287 294 295 290 289 297 292 297 311 307 299 294 295 297 295 307 315 321 320 320 321 319 316 316 319 322 324 331 337 326 327 335 342 342 341 341 343 341 343 342 339 337
276 281 289 301 304 275 286 288 296 308 307 305 306 302 301 300 300 300 313 319 321 322 322 317 315 318 320 322 327 333 333 326 330 338 342 339 337 337 337 337 335 336 336 335
280 281 284 288 282 285 302 300 305 309 309 327 314 327 310 305 300 303 309 317 319 320 319 313 313 317 318 321 327 329 330 332 333 330 330 330 332 335 337 340 339 338 338 337
276 284 287 292 287 283 294 291 292 300 293 239 278 300 305 300 297 304 314 317 318 318 310 307 313 314 314 323 323 320 325 327 326 330 332 335 338 338 338 338 338 338 338 336
280 281 282 282 280 288 301 295 291 287 293 285 285 288 291 303 311 311 313 317 317 313 308 312 314 318 318 319 320 321 324 329 333 334 335 337 336 338 338 338 338 337 337 336
275 276 273 276 281 280 278 275 283 280 277 273 277 283 295 305 311 312 313 313 311 308 311 313 314 315 312 317 319 322 327 329 334 336 335 335 336 338 338 337 337 336 335 336
Height
10962 10960 10958 10956 10956 10957 10955 10953 10950 10948 10946 10945 10943 10943 10941 10939 10938 10933 10929 10926 10920 10915 10910 10906 10900 10894 10888 10882 10876 10868 10861 10854 10848 10841 10833 10824 10815 10805 10795 10785 10777 10768 10759 10750
10959 10961 10960 10957 10955 10954 10953 10949 10946 10944 10944 10943 10942 10939 10938 10937 10934 10933 10929 10924 10917 10912 10909 10904 10897 10891 10884 10877 10870 10864 10857 10850 10843 10835 10827 10818 10809 10801 10791 10782 10773 10764 10755 10746
10957 10957 10956 10955 10953 10952 10950 10946 10943 10943 10943 10942 10943 10942 10938 10934 10931 10929 10927 10923 10917 10909 10902 10897 10893 10886 10880 10873 10867 10859 10853 10845 10838 10829 10820 10811 10803 10794 10786 10778 10769 10760 10750 10741
10956 10955 10955 10952 10950 10950 10948 10946 10942 10939 10940 10940 10940 10939 10930 10928 10924 10923 10923 10918 10914 10905 10898 10891 10886 10881 10874 10867 10861 10854 10847 10840 10832 10823 10815 10806 10797 10789 10780 10771 10763 10753 10746 10736
10955 10954 10953 10951 10948 10947 10944 10944 10943 10941 10938 10938 10937 10933 10920 10920 10917 10922 10919 10916 10911 10906 10897 10890 10881 10874 10868 10859 10854 10847 10841 10834 10826 10819 10809 10800 10791 10783 10773 10766 10758 10748 10739 10730
10950 10951 10951 10948 10946 10944 10942 10941 10939 10940 10937 10936 10935 10928 10924 10921 10921 10924 10919 10911 10905 10899 10893 10884 10878 10870 10864 10855 10847 10841 10835 10826 10818 10811 10802 10793 10785 10777 10769 10761 10752 10744 10732 10724
10945 10946 10946 10944 10943 10941 10939 10939 10935 10933 10933 10931 10931 10929 10928 10924 10919 10913 10907 10902 10897 10892 10884 10878 10874 10867 10861 10853 10843 10834 10826 10818 10811 10803 10794 10786 10777 10768 10760 10752 10744 10735 10726 10716
10941 10941 10940 10941 10939 10938 10935 10933 10930 10926 10924 10923 10924 10922 10918 10913 10909 10900 10889 10892 10889 10883 10879 10871 10864 10859 10852 10845 10837 10827 10820 10811 10803 10796 10787 10777 10770 10760 10752 10743 10734 10725 10717 10708
10936 10937 10934 10933 10933 10933 10931 10928 10928 10924 10921 10918 10916 10914 10910 10905 10908 10900 10891 10880 10880 10879 10872 10865 10857 10850 10842 10834 10828 10821 10814 10806 10798 10788 10779 10770 10762 10755 10746 10736 10727 10717 10709 10699
10931 10931 10931 10928 10928 10928 10926 10925 10920 10917 10916 10915 10910 10909 10907 10901 10897 10897 10889 10880 10873 10867 10863 10858 10850 10845 10837 10827 10822 10816 10807 10797 10789 10780 10770 10762 10751 10742 10734 10725 10715 10708 10699 10689
10928 10926 10927 10923 10926 10923 10921 10921 10916 10911 10909 10909 10906 10904 10905 10901 10893 10888 10885 10876 10869 10864 10847 10857 10844 10834 10827 10820 10811 10805 10798 10788 10779 10769 10760 10751 10743 10734 10724 10716 10706 10697 10689 10680
10922 10921 10922 10922 10923 10919 10917 10913 10911 10909 10907 10904 10900 10895 10899 10892 10885 10880 10874 10866 10866 10868 10867 10856 10842 10825 10816 10811 10801 10792 10787 10780 10770 10761 10750 10741 10732 10724 10715 10706 10697 10688 10678 10670
10917 10917 10916 10916 10916 10915 10912 10909 10905 10899 10900 10899 10893 10892 10890 10887 10882 10876 10867 10860 10856 10858 10848 10841 10831 10814 10805 10800 10792 10784 10778 10772 10766 10757 10745 10733 10722 10711 10702 10693 10683 10674 10666 10657
10912 10912 10911 10910 10910 10909 10906 10903 10901 10897 10894 10891 10886 10886 10885 10880 10872 10868 10861 10859 10856 10850 10855 10842 10823 10808 10798 10791 10787 10776 10769 10759 10751 10742 10734 10723 10711 10700 10689 10678 10669 10660 10651 10643
10907 10907 10906 10904 10902 10901 10900 10896 10894 10890 10888 10884 10878 10877 10877 10872 10867 10863 10856 10852 10854 10851 10845 10837 10825 10810 10795 10786 10774 10768 10760 10751 10743 10733 10721 10709 10698 10686 10674 10663 10653 10645 10636 10631
10901 10901 10899 10898 10897 10895 10894 10891 10887 10883 10878 10876 10868 10870 10870 10866 10862 10856 10851 10843 10838 10838 10839 10829 10822 10809 10796 10783 10772 10763 10752 10741 10731 10720 10707 10695 10682 10668 10655 10644 10636 10629 10623 10619
10894 10894 10893 10891 10891 10890 10889 10885 10880 10877 10873 10871 10863 10861 10864 10861 10855 10849 10843 10838 10831 10826 10817 10807 10802 10794 10785 10776 10767 10756 10745 10734 10722 10709 10696 10683 10669 10656 10644 10634 10625 10618 10613 10609
10887 10887 10887 10886 10885 10883 10886 10883 10880 10873 10872 10865 10859 10854 10851 10851 10847 10844 10837 10831 10822 10812 10805 10795 10785 10780 10772 10764 10757 10749 10738 10724 10710 10697 10688 10675 10661 10648 10639 10629 10620 10613 10609 10605
10882 10882 10881 10881 10881 10880 10879 10880 10876 10868 10867 10860 10855 10846 10844 10842 10837 10831 10824 10817 10810 10803 10796 10789 10779 10768 10762 10756 10747 10735 10725 10713 10701 10692 10682 10669 10656 10645 10637 10629 10621 10615 10608 10601
10877 10876 10874 10875 10878 10877 10872 10868 10865 10864 10864 10854 10848 10843 10837 10828 10828 10823 10815 10812 10804 10796 10788 10778 10770 10761 10754 10745 10733 10723 10714 10702 10695 10685 10675 10664 10654 10644 10635 10628 10621 10614 10607 10600
10868 10869 10869 10868 10869 10866 10865 10863 10857 10855 10853 10848 10842 10838 10833 10823 10819 10819 10808 10800 10793 10785 10778 10766 10758 10750 10744 10733 10723 10713 10706 10696 10688 10678 10669 10660 10651 10642 10632 10624 10617 10611 10602 10595
10859 10860 10860 10862 10854 10853 10854 10851 10848 10845 10837 10837 10827 10820 10818 10811 10811 10809 10802 10791 10776 10766 10764 10758 10749 10741 10734 10725 10716 10707 10697 10687 10680 10670 10662 10655 10647 10637 10630 10620 10615 10609 10602 10593
10848 10850 10852 10858 10856 10849 10845 10843 10837 10833 10831 10828 10818 10809 10801 10798 10797 10797 10794 10787 10781 10766 10758 10751 10745 10736 10726 10717 10708 10701 10692 10681 10673 10666 10660 10653 10644 10635 10627 10620 10612 10603 10594 10586
10835 10844 10844 10849 10841 10834 10833 10833 10829 10824 10825 10825 10807 10798 10798 10794 10786 10778 10774 10771 10768 10758 10751 10744 10737 10729 10721 10711 10703 10694 10687 10678 10670 10661 10653 10645 10636 10629 10621 10613 10605 10597 10590 10580
10830 10834 10833 10835 10829 10821 10826 10822 10820 10815 10809 10809 10796 10791 10789 10781 10772 10769 10760 10756 10752 10746 10740 10734 10727 10718 10709 10703 10698 10690 10682 10673 10664 10657 10648 10640 10632 10623 10613 10603 10597 10589 10580 10572
10816 10818 10821 10820 10820 10816 10816 10811 10802 10796 10794 10795 10790 10786 10780 10771 10764 10760 10751 10744 10742 10735 10730 10724 10717 10708 10701 10694 10689 10682 10674 10666 10659 10651 10644 10635 10625 10616 10608 10599 10586 10578 10569 10557